Year,Month,Day,Hour,Minute,Value (Times are PST for temperature in C)
2020,08,16,00,00,17.10
2020,08,16,00,01,17.10
2020,08,16,00,02,17.10
2020,08,16,00,03,17.00
2020,08,16,00,04,17.00
2020,08,16,00,05,17.00
2020,08,16,00,06,16.90
2020,08,16,00,07,16.90
2020,08,16,00,08,16.90
2020,08,16,00,09,16.80
2020,08,16,00,10,16.80
2020,08,16,00,11,16.80
2020,08,16,00,12,16.70
2020,08,16,00,13,16.70
2020,08,16,00,14,16.70
2020,08,16,00,15,16.70
2020,08,16,00,16,16.70
2020,08,16,00,17,16.70
2020,08,16,00,18,16.60
2020,08,16,00,19,16.60
2020,08,16,00,20,16.60
2020,08,16,00,21,16.60
2020,08,16,00,22,16.50
2020,08,16,00,23,16.40
2020,08,16,00,24,16.40
2020,08,16,00,25,16.40
2020,08,16,00,26,16.40
2020,08,16,00,27,16.40
2020,08,16,00,28,16.40
2020,08,16,00,29,16.40
2020,08,16,00,30,16.40
2020,08,16,00,31,16.30
2020,08,16,00,32,16.30
2020,08,16,00,33,16.30
2020,08,16,00,34,16.30
2020,08,16,00,35,16.20
2020,08,16,00,36,16.20
2020,08,16,00,37,16.20
2020,08,16,00,38,16.10
2020,08,16,00,39,16.10
2020,08,16,00,40,16.10
2020,08,16,00,41,16.10
2020,08,16,00,42,16.10
2020,08,16,00,43,16.10
2020,08,16,00,44,16.00
2020,08,16,00,45,15.90
2020,08,16,00,46,15.90
2020,08,16,00,47,15.90
2020,08,16,00,48,15.90
2020,08,16,00,49,15.90
2020,08,16,00,50,16.00
2020,08,16,00,51,16.10
2020,08,16,00,52,16.10
2020,08,16,00,53,16.10
2020,08,16,00,54,16.10
2020,08,16,00,55,16.10
2020,08,16,00,56,16.10
2020,08,16,00,57,16.10
2020,08,16,00,58,16.10
2020,08,16,00,59,16.10
2020,08,16,01,00,16.10
2020,08,16,01,01,16.00
2020,08,16,01,02,15.90
2020,08,16,01,03,15.90
2020,08,16,01,04,15.90
2020,08,16,01,05,15.90
2020,08,16,01,06,15.90
2020,08,16,01,07,15.90
2020,08,16,01,08,15.90
2020,08,16,01,09,15.90
2020,08,16,01,10,16.00
2020,08,16,01,11,15.90
2020,08,16,01,12,15.90
2020,08,16,01,13,15.90
2020,08,16,01,14,15.90
2020,08,16,01,15,15.90
2020,08,16,01,16,15.90
2020,08,16,01,17,15.90
2020,08,16,01,18,15.90
2020,08,16,01,19,15.90
2020,08,16,01,20,15.90
2020,08,16,01,21,15.80
2020,08,16,01,22,15.80
2020,08,16,01,23,15.80
2020,08,16,01,24,15.80
2020,08,16,01,25,15.80
2020,08,16,01,26,15.80
2020,08,16,01,27,15.70
2020,08,16,01,28,15.70
2020,08,16,01,29,15.60
2020,08,16,01,30,15.60
2020,08,16,01,31,15.60
2020,08,16,01,32,15.60
2020,08,16,01,33,15.60
2020,08,16,01,34,15.50
2020,08,16,01,35,15.50
2020,08,16,01,36,15.50
2020,08,16,01,37,15.50
2020,08,16,01,38,15.50
2020,08,16,01,39,15.50
2020,08,16,01,40,15.40
2020,08,16,01,41,15.40
2020,08,16,01,42,15.40
2020,08,16,01,43,15.30
2020,08,16,01,44,15.30
2020,08,16,01,45,15.30
2020,08,16,01,46,15.30
2020,08,16,01,47,15.30
2020,08,16,01,48,15.30
2020,08,16,01,49,15.30
2020,08,16,01,50,15.30
2020,08,16,01,51,15.30
2020,08,16,01,52,15.30
2020,08,16,01,53,15.30
2020,08,16,01,54,15.30
2020,08,16,01,55,15.30
2020,08,16,01,56,15.30
2020,08,16,01,57,15.30
2020,08,16,01,58,15.30
2020,08,16,01,59,15.30
2020,08,16,02,00,15.30
2020,08,16,02,01,15.30
2020,08,16,02,02,15.30
2020,08,16,02,03,15.20
2020,08,16,02,04,15.20
2020,08,16,02,05,15.20
2020,08,16,02,06,15.20
2020,08,16,02,07,15.20
2020,08,16,02,08,15.10
2020,08,16,02,09,15.10
2020,08,16,02,10,15.10
2020,08,16,02,11,15.10
2020,08,16,02,12,15.10
2020,08,16,02,13,15.00
2020,08,16,02,14,15.00
2020,08,16,02,15,15.00
2020,08,16,02,16,15.00
2020,08,16,02,17,14.90
2020,08,16,02,18,14.90
2020,08,16,02,19,14.90
2020,08,16,02,20,14.90
2020,08,16,02,21,14.90
2020,08,16,02,22,14.80
2020,08,16,02,23,14.80
2020,08,16,02,24,14.80
2020,08,16,02,25,14.80
2020,08,16,02,26,14.80
2020,08,16,02,27,14.80
2020,08,16,02,28,14.80
2020,08,16,02,29,14.80
2020,08,16,02,30,14.80
2020,08,16,02,31,14.80
2020,08,16,02,32,14.80
2020,08,16,02,33,14.80
2020,08,16,02,34,14.80
2020,08,16,02,35,14.80
2020,08,16,02,36,14.80
2020,08,16,02,37,14.80
2020,08,16,02,38,14.80
2020,08,16,02,39,14.80
2020,08,16,02,40,14.80
2020,08,16,02,41,14.80
2020,08,16,02,42,14.80
2020,08,16,02,43,14.80
2020,08,16,02,44,14.80
2020,08,16,02,45,14.80
2020,08,16,02,46,14.80
2020,08,16,02,47,14.80
2020,08,16,02,48,14.80
2020,08,16,02,49,14.80
2020,08,16,02,50,14.80
2020,08,16,02,51,14.80
2020,08,16,02,52,14.80
2020,08,16,02,53,14.80
2020,08,16,02,54,14.80
2020,08,16,02,55,14.80
2020,08,16,02,56,14.80
2020,08,16,02,57,14.80
2020,08,16,02,58,14.80
2020,08,16,02,59,14.80
2020,08,16,03,00,14.80
2020,08,16,03,01,14.80
2020,08,16,03,02,14.80
2020,08,16,03,03,14.80
2020,08,16,03,04,14.80
2020,08,16,03,05,14.80
2020,08,16,03,06,14.80
2020,08,16,03,07,14.80
2020,08,16,03,08,14.80
2020,08,16,03,09,14.80
2020,08,16,03,10,14.70
2020,08,16,03,11,14.70
2020,08,16,03,12,14.70
2020,08,16,03,13,14.70
2020,08,16,03,14,14.70
2020,08,16,03,15,14.70
2020,08,16,03,16,14.70
2020,08,16,03,17,14.70
2020,08,16,03,18,14.70
2020,08,16,03,19,14.70
2020,08,16,03,20,14.70
2020,08,16,03,21,14.70
2020,08,16,03,22,14.70
2020,08,16,03,23,14.70
2020,08,16,03,24,14.70
2020,08,16,03,25,14.70
2020,08,16,03,26,14.70
2020,08,16,03,27,14.70
2020,08,16,03,28,14.70
2020,08,16,03,29,14.70
2020,08,16,03,30,14.60
2020,08,16,03,31,14.60
2020,08,16,03,32,14.60
2020,08,16,03,33,14.50
2020,08,16,03,34,14.50
2020,08,16,03,35,14.50
2020,08,16,03,36,14.50
2020,08,16,03,37,14.40
2020,08,16,03,38,14.40
2020,08,16,03,39,14.40
2020,08,16,03,40,14.40
2020,08,16,03,41,14.40
2020,08,16,03,42,14.40
2020,08,16,03,43,14.30
2020,08,16,03,44,14.30
2020,08,16,03,45,14.30
2020,08,16,03,46,14.30
2020,08,16,03,47,14.30
2020,08,16,03,48,14.30
2020,08,16,03,49,14.30
2020,08,16,03,50,14.20
2020,08,16,03,51,14.20
2020,08,16,03,52,14.20
2020,08,16,03,53,14.20
2020,08,16,03,54,14.30
2020,08,16,03,55,14.30
2020,08,16,03,56,14.30
2020,08,16,03,57,14.30
2020,08,16,03,58,14.30
2020,08,16,03,59,14.40
2020,08,16,04,00,14.40
2020,08,16,04,01,14.30
2020,08,16,04,02,14.30
2020,08,16,04,03,14.30
2020,08,16,04,04,14.30
2020,08,16,04,05,14.20
2020,08,16,04,06,14.20
2020,08,16,04,07,14.20
2020,08,16,04,08,14.20
2020,08,16,04,09,14.20
2020,08,16,04,10,14.20
2020,08,16,04,11,14.20
2020,08,16,04,12,14.20
2020,08,16,04,13,14.20
2020,08,16,04,14,14.20
2020,08,16,04,15,14.20
2020,08,16,04,16,14.20
2020,08,16,04,17,14.20
2020,08,16,04,18,14.20
2020,08,16,04,19,14.20
2020,08,16,04,20,14.20
2020,08,16,04,21,14.30
2020,08,16,04,22,14.30
2020,08,16,04,23,14.30
2020,08,16,04,24,14.30
2020,08,16,04,25,14.20
2020,08,16,04,26,14.20
2020,08,16,04,27,14.20
2020,08,16,04,28,14.20
2020,08,16,04,29,14.20
2020,08,16,04,30,14.30
2020,08,16,04,31,14.30
2020,08,16,04,32,14.40
2020,08,16,04,33,14.40
2020,08,16,04,34,14.40
2020,08,16,04,35,14.40
2020,08,16,04,36,14.40
2020,08,16,04,37,14.40
2020,08,16,04,38,14.50
2020,08,16,04,39,14.50
2020,08,16,04,40,14.50
2020,08,16,04,41,14.50
2020,08,16,04,42,14.50
2020,08,16,04,43,14.60
2020,08,16,04,44,14.60
2020,08,16,04,45,14.60
2020,08,16,04,46,14.60
2020,08,16,04,47,14.60
2020,08,16,04,48,14.60
2020,08,16,04,49,14.60
2020,08,16,04,50,14.60
2020,08,16,04,51,14.50
2020,08,16,04,52,14.50
2020,08,16,04,53,14.50
2020,08,16,04,54,14.40
2020,08,16,04,55,14.40
2020,08,16,04,56,14.30
2020,08,16,04,57,14.20
2020,08,16,04,58,14.20
2020,08,16,04,59,14.20
2020,08,16,05,00,14.10
2020,08,16,05,01,14.10
2020,08,16,05,02,14.10
2020,08,16,05,03,14.10
2020,08,16,05,04,14.10
2020,08,16,05,05,14.10
2020,08,16,05,06,14.10
2020,08,16,05,07,14.10
2020,08,16,05,08,14.10
2020,08,16,05,09,14.10
2020,08,16,05,10,14.10
2020,08,16,05,11,14.10
2020,08,16,05,12,14.10
2020,08,16,05,13,14.10
2020,08,16,05,14,14.10
2020,08,16,05,15,14.20
2020,08,16,05,16,14.20
2020,08,16,05,17,14.20
2020,08,16,05,18,14.10
2020,08,16,05,19,14.10
2020,08,16,05,20,14.10
2020,08,16,05,21,14.10
2020,08,16,05,22,14.10
2020,08,16,05,23,14.20
2020,08,16,05,24,14.20
2020,08,16,05,25,14.20
2020,08,16,05,26,14.20
2020,08,16,05,27,14.20
2020,08,16,05,28,14.20
2020,08,16,05,29,14.20
2020,08,16,05,30,14.10
2020,08,16,05,31,14.10
2020,08,16,05,32,14.10
2020,08,16,05,33,14.10
2020,08,16,05,34,14.10
2020,08,16,05,35,14.10
2020,08,16,05,36,14.10
2020,08,16,05,37,14.10
2020,08,16,05,38,14.10
2020,08,16,05,39,14.10
2020,08,16,05,40,14.10
2020,08,16,05,41,14.10
2020,08,16,05,42,14.20
2020,08,16,05,43,14.20
2020,08,16,05,44,14.20
2020,08,16,05,45,14.20
2020,08,16,05,46,14.20
2020,08,16,05,47,14.20
2020,08,16,05,48,14.20
2020,08,16,05,49,14.20
2020,08,16,05,50,14.20
2020,08,16,05,51,14.20
2020,08,16,05,52,14.20
2020,08,16,05,53,14.20
2020,08,16,05,54,14.20
2020,08,16,05,55,14.20
2020,08,16,05,56,14.20
2020,08,16,05,57,14.10
2020,08,16,05,58,14.00
2020,08,16,05,59,14.00
2020,08,16,06,00,14.00
2020,08,16,06,01,13.90
2020,08,16,06,02,13.90
2020,08,16,06,03,13.80
2020,08,16,06,04,13.80
2020,08,16,06,05,13.80
2020,08,16,06,06,13.80
2020,08,16,06,07,13.80
2020,08,16,06,08,13.80
2020,08,16,06,09,13.80
2020,08,16,06,10,13.80
2020,08,16,06,11,13.80
2020,08,16,06,12,13.80
2020,08,16,06,13,13.80
2020,08,16,06,14,13.80
2020,08,16,06,15,13.80
2020,08,16,06,16,13.90
2020,08,16,06,17,13.90
2020,08,16,06,18,13.90
2020,08,16,06,19,13.90
2020,08,16,06,20,13.90
2020,08,16,06,21,14.00
2020,08,16,06,22,14.00
2020,08,16,06,23,14.00
2020,08,16,06,24,14.00
2020,08,16,06,25,14.00
2020,08,16,06,26,14.00
2020,08,16,06,27,14.00
2020,08,16,06,28,14.00
2020,08,16,06,29,14.00
2020,08,16,06,30,14.10
2020,08,16,06,31,14.10
2020,08,16,06,32,14.10
2020,08,16,06,33,14.10
2020,08,16,06,34,14.10
2020,08,16,06,35,14.20
2020,08,16,06,36,14.20
2020,08,16,06,37,14.10
2020,08,16,06,38,14.20
2020,08,16,06,39,14.20
2020,08,16,06,40,14.20
2020,08,16,06,41,14.20
2020,08,16,06,42,14.20
2020,08,16,06,43,14.20
2020,08,16,06,44,14.20
2020,08,16,06,45,14.20
2020,08,16,06,46,14.20
2020,08,16,06,47,14.20
2020,08,16,06,48,14.20
2020,08,16,06,49,14.30
2020,08,16,06,50,14.30
2020,08,16,06,51,14.30
2020,08,16,06,52,14.40
2020,08,16,06,53,14.40
2020,08,16,06,54,14.50
2020,08,16,06,55,14.50
2020,08,16,06,56,14.60
2020,08,16,06,57,14.60
2020,08,16,06,58,14.70
2020,08,16,06,59,14.70
2020,08,16,07,00,14.80
2020,08,16,07,01,14.80
2020,08,16,07,02,14.90
2020,08,16,07,03,15.00
2020,08,16,07,04,15.10
2020,08,16,07,05,15.20
2020,08,16,07,06,15.40
2020,08,16,07,07,15.50
2020,08,16,07,08,15.60
2020,08,16,07,09,15.70
2020,08,16,07,10,15.80
2020,08,16,07,11,15.80
2020,08,16,07,12,15.90
2020,08,16,07,13,16.00
2020,08,16,07,14,16.10
2020,08,16,07,15,16.20
2020,08,16,07,16,16.40
2020,08,16,07,17,16.50
2020,08,16,07,18,16.60
2020,08,16,07,19,16.70
2020,08,16,07,20,16.70
2020,08,16,07,21,16.80
2020,08,16,07,22,16.90
2020,08,16,07,23,17.00
2020,08,16,07,24,17.20
2020,08,16,07,25,17.40
2020,08,16,07,26,17.50
2020,08,16,07,27,17.70
2020,08,16,07,28,17.80
2020,08,16,07,29,17.90
2020,08,16,07,30,18.00
2020,08,16,07,31,18.10
2020,08,16,07,32,18.30
2020,08,16,07,33,18.40
2020,08,16,07,34,18.50
2020,08,16,07,35,18.60
2020,08,16,07,36,18.60
2020,08,16,07,37,18.70
2020,08,16,07,38,18.70
2020,08,16,07,39,18.70
2020,08,16,07,40,18.80
2020,08,16,07,41,18.90
2020,08,16,07,42,19.00
2020,08,16,07,43,19.10
2020,08,16,07,44,19.10
2020,08,16,07,45,19.30
2020,08,16,07,46,19.40
2020,08,16,07,47,19.50
2020,08,16,07,48,19.60
2020,08,16,07,49,19.70
2020,08,16,07,50,19.80
2020,08,16,07,51,19.90
2020,08,16,07,52,20.00
2020,08,16,07,53,20.20
2020,08,16,07,54,20.20
2020,08,16,07,55,20.40
2020,08,16,07,56,20.50
2020,08,16,07,57,20.50
2020,08,16,07,58,20.60
2020,08,16,07,59,20.70
2020,08,16,08,00,20.80
2020,08,16,08,01,20.80
2020,08,16,08,02,20.90
2020,08,16,08,03,21.00
2020,08,16,08,04,21.00
2020,08,16,08,05,21.10
2020,08,16,08,06,21.10
2020,08,16,08,07,21.20
2020,08,16,08,08,21.30
2020,08,16,08,09,21.30
2020,08,16,08,10,21.30
2020,08,16,08,11,21.30
2020,08,16,08,12,21.40
2020,08,16,08,13,21.50
2020,08,16,08,14,21.60
2020,08,16,08,15,21.60
2020,08,16,08,16,21.60
2020,08,16,08,17,21.60
2020,08,16,08,18,21.70
2020,08,16,08,19,21.80
2020,08,16,08,20,21.80
2020,08,16,08,21,21.90
2020,08,16,08,22,21.90
2020,08,16,08,23,22.00
2020,08,16,08,24,22.00
2020,08,16,08,25,22.00
2020,08,16,08,26,22.10
2020,08,16,08,27,22.10
2020,08,16,08,28,22.10
2020,08,16,08,29,22.10
2020,08,16,08,30,22.20
2020,08,16,08,31,22.20
2020,08,16,08,32,22.30
2020,08,16,08,33,22.30
2020,08,16,08,34,22.40
2020,08,16,08,35,22.40
2020,08,16,08,36,22.50
2020,08,16,08,37,22.50
2020,08,16,08,38,22.60
2020,08,16,08,39,22.60
2020,08,16,08,40,22.60
2020,08,16,08,41,22.60
2020,08,16,08,42,22.60
2020,08,16,08,43,22.60
2020,08,16,08,44,22.50
2020,08,16,08,45,22.60
2020,08,16,08,46,22.60
2020,08,16,08,47,22.60
2020,08,16,08,48,22.70
2020,08,16,08,49,22.70
2020,08,16,08,50,22.80
2020,08,16,08,51,22.80
2020,08,16,08,52,22.90
2020,08,16,08,53,22.90
2020,08,16,08,54,23.00
2020,08,16,08,55,23.10
2020,08,16,08,56,23.20
2020,08,16,08,57,23.30
2020,08,16,08,58,23.30
2020,08,16,08,59,23.40
2020,08,16,09,00,23.40
2020,08,16,09,01,23.60
2020,08,16,09,02,23.60
2020,08,16,09,03,23.70
2020,08,16,09,04,23.70
2020,08,16,09,05,23.70
2020,08,16,09,06,23.80
2020,08,16,09,07,23.80
2020,08,16,09,08,23.80
2020,08,16,09,09,23.80
2020,08,16,09,10,23.80
2020,08,16,09,11,23.80
2020,08,16,09,12,23.80
2020,08,16,09,13,23.70
2020,08,16,09,14,23.70
2020,08,16,09,15,23.70
2020,08,16,09,16,23.70
2020,08,16,09,17,23.70
2020,08,16,09,18,23.70
2020,08,16,09,19,23.70
2020,08,16,09,20,23.70
2020,08,16,09,21,23.70
2020,08,16,09,22,23.70
2020,08,16,09,23,23.70
2020,08,16,09,24,23.70
2020,08,16,09,25,23.60
2020,08,16,09,26,23.50
2020,08,16,09,27,23.40
2020,08,16,09,28,23.30
2020,08,16,09,29,23.30
2020,08,16,09,30,23.30
2020,08,16,09,31,23.30
2020,08,16,09,32,23.30
2020,08,16,09,33,23.40
2020,08,16,09,34,23.40
2020,08,16,09,35,23.40
2020,08,16,09,36,23.50
2020,08,16,09,37,23.40
2020,08,16,09,38,23.40
2020,08,16,09,39,23.40
2020,08,16,09,40,23.40
2020,08,16,09,41,23.30
2020,08,16,09,42,23.30
2020,08,16,09,43,23.30
2020,08,16,09,44,23.30
2020,08,16,09,45,23.30
2020,08,16,09,46,23.30
2020,08,16,09,47,23.40
2020,08,16,09,48,23.40
2020,08,16,09,49,23.60
2020,08,16,09,50,23.70
2020,08,16,09,51,23.70
2020,08,16,09,52,23.70
2020,08,16,09,53,23.70
2020,08,16,09,54,23.70
2020,08,16,09,55,23.80
2020,08,16,09,56,23.80
2020,08,16,09,57,23.90
2020,08,16,09,58,24.00
2020,08,16,09,59,24.10
2020,08,16,10,00,24.20
2020,08,16,10,01,24.30
2020,08,16,10,02,24.40
2020,08,16,10,03,24.50
2020,08,16,10,04,24.70
2020,08,16,10,05,24.80
2020,08,16,10,06,24.90
2020,08,16,10,07,24.90
2020,08,16,10,08,25.00
2020,08,16,10,09,25.00
2020,08,16,10,10,25.10
2020,08,16,10,11,25.10
2020,08,16,10,12,25.00
2020,08,16,10,13,25.00
2020,08,16,10,14,25.10
2020,08,16,10,15,25.10
2020,08,16,10,16,25.10
2020,08,16,10,17,25.10
2020,08,16,10,18,25.10
2020,08,16,10,19,25.00
2020,08,16,10,20,25.00
2020,08,16,10,21,25.10
2020,08,16,10,22,25.00
2020,08,16,10,23,25.00
2020,08,16,10,24,25.00
2020,08,16,10,25,25.00
2020,08,16,10,26,25.00
2020,08,16,10,27,25.00
2020,08,16,10,28,25.10
2020,08,16,10,29,25.10
2020,08,16,10,30,25.10
2020,08,16,10,31,25.00
2020,08,16,10,32,25.00
2020,08,16,10,33,25.10
2020,08,16,10,34,25.20
2020,08,16,10,35,25.40
2020,08,16,10,36,25.50
2020,08,16,10,37,25.50
2020,08,16,10,38,25.50
2020,08,16,10,39,25.60
2020,08,16,10,40,25.60
2020,08,16,10,41,25.60
2020,08,16,10,42,25.70
2020,08,16,10,43,25.70
2020,08,16,10,44,25.80
2020,08,16,10,45,25.90
2020,08,16,10,46,26.00
2020,08,16,10,47,26.20
2020,08,16,10,48,26.30
2020,08,16,10,49,26.30
2020,08,16,10,50,26.30
2020,08,16,10,51,26.30
2020,08,16,10,52,26.20
2020,08,16,10,53,26.00
2020,08,16,10,54,25.90
2020,08,16,10,55,25.90
2020,08,16,10,56,25.90
2020,08,16,10,57,26.00
2020,08,16,10,58,26.20
2020,08,16,10,59,26.30
2020,08,16,11,00,26.40
2020,08,16,11,01,26.50
2020,08,16,11,02,26.60
2020,08,16,11,03,26.60
2020,08,16,11,04,26.60
2020,08,16,11,05,26.70
2020,08,16,11,06,26.80
2020,08,16,11,07,26.70
2020,08,16,11,08,26.70
2020,08,16,11,09,26.70
2020,08,16,11,10,26.70
2020,08,16,11,11,26.50
2020,08,16,11,12,26.40
2020,08,16,11,13,26.30
2020,08,16,11,14,26.30
2020,08,16,11,15,26.30
2020,08,16,11,16,26.20
2020,08,16,11,17,26.10
2020,08,16,11,18,26.10
2020,08,16,11,19,26.10
2020,08,16,11,20,26.20
2020,08,16,11,21,26.20
2020,08,16,11,22,26.30
2020,08,16,11,23,26.40
2020,08,16,11,24,26.50
2020,08,16,11,25,26.60
2020,08,16,11,26,26.60
2020,08,16,11,27,26.60
2020,08,16,11,28,26.60
2020,08,16,11,29,26.70
2020,08,16,11,30,26.70
2020,08,16,11,31,26.70
2020,08,16,11,32,26.70
2020,08,16,11,33,26.70
2020,08,16,11,34,26.80
2020,08,16,11,35,26.80
2020,08,16,11,36,26.80
2020,08,16,11,37,26.90
2020,08,16,11,38,27.00
2020,08,16,11,39,27.10
2020,08,16,11,40,27.10
2020,08,16,11,41,27.20
2020,08,16,11,42,27.30
2020,08,16,11,43,27.30
2020,08,16,11,44,27.30
2020,08,16,11,45,27.30
2020,08,16,11,46,27.20
2020,08,16,11,47,27.10
2020,08,16,11,48,26.90
2020,08,16,11,49,26.90
2020,08,16,11,50,26.80
2020,08,16,11,51,26.80
2020,08,16,11,52,26.70
2020,08,16,11,53,26.70
2020,08,16,11,54,26.70
2020,08,16,11,55,26.70
2020,08,16,11,56,26.80
2020,08,16,11,57,26.80
2020,08,16,11,58,26.90
2020,08,16,11,59,27.00
2020,08,16,12,00,27.10
2020,08,16,12,01,27.10
2020,08,16,12,02,27.10
2020,08,16,12,03,27.10
2020,08,16,12,04,27.20
2020,08,16,12,05,27.30
2020,08,16,12,06,27.30
2020,08,16,12,07,27.30
2020,08,16,12,08,27.30
2020,08,16,12,09,27.30
2020,08,16,12,10,27.30
2020,08,16,12,11,27.30
2020,08,16,12,12,27.20
2020,08,16,12,13,27.20
2020,08,16,12,14,27.20
2020,08,16,12,15,27.30
2020,08,16,12,16,27.30
2020,08,16,12,17,27.30
2020,08,16,12,18,27.40
2020,08,16,12,19,27.50
2020,08,16,12,20,27.60
2020,08,16,12,21,27.60
2020,08,16,12,22,27.50
2020,08,16,12,23,27.40
2020,08,16,12,24,27.30
2020,08,16,12,25,27.30
2020,08,16,12,26,27.30
2020,08,16,12,27,27.30
2020,08,16,12,28,27.40
2020,08,16,12,29,27.50
2020,08,16,12,30,27.70
2020,08,16,12,31,27.80
2020,08,16,12,32,27.80
2020,08,16,12,33,27.90
2020,08,16,12,34,28.00
2020,08,16,12,35,28.10
2020,08,16,12,36,28.10
2020,08,16,12,37,28.00
2020,08,16,12,38,28.10
2020,08,16,12,39,28.20
2020,08,16,12,40,28.30
2020,08,16,12,41,28.50
2020,08,16,12,42,28.70
2020,08,16,12,43,28.80
2020,08,16,12,44,28.90
2020,08,16,12,45,28.80
2020,08,16,12,46,28.80
2020,08,16,12,47,28.70
2020,08,16,12,48,28.70
2020,08,16,12,49,28.70
2020,08,16,12,50,28.70
2020,08,16,12,51,28.90
2020,08,16,12,52,28.90
2020,08,16,12,53,28.90
2020,08,16,12,54,28.80
2020,08,16,12,55,28.80
2020,08,16,12,56,28.60
2020,08,16,12,57,28.50
2020,08,16,12,58,28.40
2020,08,16,12,59,28.30
2020,08,16,13,00,28.20
2020,08,16,13,01,28.20
2020,08,16,13,02,28.20
2020,08,16,13,03,28.30
2020,08,16,13,04,28.40
2020,08,16,13,05,28.50
2020,08,16,13,06,28.60
2020,08,16,13,07,28.60
2020,08,16,13,08,28.70
2020,08,16,13,09,28.80
2020,08,16,13,10,28.90
2020,08,16,13,11,28.90
2020,08,16,13,12,28.90
2020,08,16,13,13,28.90
2020,08,16,13,14,28.90
2020,08,16,13,15,28.90
2020,08,16,13,16,28.90
2020,08,16,13,17,28.90
2020,08,16,13,18,28.90
2020,08,16,13,19,28.90
2020,08,16,13,20,28.90
2020,08,16,13,21,28.90
2020,08,16,13,22,28.90
2020,08,16,13,23,28.90
2020,08,16,13,24,29.00
2020,08,16,13,25,29.10
2020,08,16,13,26,29.10
2020,08,16,13,27,29.10
2020,08,16,13,28,29.10
2020,08,16,13,29,29.20
2020,08,16,13,30,29.40
2020,08,16,13,31,29.50
2020,08,16,13,32,29.70
2020,08,16,13,33,29.80
2020,08,16,13,34,29.80
2020,08,16,13,35,29.80
2020,08,16,13,36,29.70
2020,08,16,13,37,29.70
2020,08,16,13,38,29.70
2020,08,16,13,39,29.80
2020,08,16,13,40,29.90
2020,08,16,13,41,29.90
2020,08,16,13,42,29.80
2020,08,16,13,43,29.80
2020,08,16,13,44,29.70
2020,08,16,13,45,29.60
2020,08,16,13,46,29.60
2020,08,16,13,47,29.70
2020,08,16,13,48,29.80
2020,08,16,13,49,29.80
2020,08,16,13,50,29.70
2020,08,16,13,51,29.60
2020,08,16,13,52,29.60
2020,08,16,13,53,29.60
2020,08,16,13,54,29.60
2020,08,16,13,55,29.60
2020,08,16,13,56,29.70
2020,08,16,13,57,29.60
2020,08,16,13,58,29.70
2020,08,16,13,59,29.80
2020,08,16,14,00,30.00
2020,08,16,14,01,30.10
2020,08,16,14,02,30.30
2020,08,16,14,03,30.30
2020,08,16,14,04,30.30
2020,08,16,14,05,30.40
2020,08,16,14,06,30.40
2020,08,16,14,07,30.40
2020,08,16,14,08,30.50
2020,08,16,14,09,30.60
2020,08,16,14,10,30.60
2020,08,16,14,11,30.60
2020,08,16,14,12,30.60
2020,08,16,14,13,30.60
2020,08,16,14,14,30.50
2020,08,16,14,15,30.40
2020,08,16,14,16,30.30
2020,08,16,14,17,30.30
2020,08,16,14,18,30.30
2020,08,16,14,19,30.30
2020,08,16,14,20,30.30
2020,08,16,14,21,30.30
2020,08,16,14,22,30.40
2020,08,16,14,23,30.40
2020,08,16,14,24,30.50
2020,08,16,14,25,30.60
2020,08,16,14,26,30.60
2020,08,16,14,27,30.60
2020,08,16,14,28,30.50
2020,08,16,14,29,30.40
2020,08,16,14,30,30.30
2020,08,16,14,31,30.30
2020,08,16,14,32,30.30
2020,08,16,14,33,30.40
2020,08,16,14,34,30.40
2020,08,16,14,35,30.30
2020,08,16,14,36,30.20
2020,08,16,14,37,30.10
2020,08,16,14,38,30.10
2020,08,16,14,39,30.00
2020,08,16,14,40,29.90
2020,08,16,14,41,29.90
2020,08,16,14,42,29.90
2020,08,16,14,43,29.90
2020,08,16,14,44,30.00
2020,08,16,14,45,30.10
2020,08,16,14,46,29.90
2020,08,16,14,47,29.80
2020,08,16,14,48,29.80
2020,08,16,14,49,29.80
2020,08,16,14,50,29.80
2020,08,16,14,51,29.70
2020,08,16,14,52,29.80
2020,08,16,14,53,29.80
2020,08,16,14,54,29.70
2020,08,16,14,55,29.60
2020,08,16,14,56,29.60
2020,08,16,14,57,29.70
2020,08,16,14,58,29.80
2020,08,16,14,59,29.90
2020,08,16,15,00,29.90
2020,08,16,15,01,29.90
2020,08,16,15,02,29.90
2020,08,16,15,03,30.10
2020,08,16,15,04,30.20
2020,08,16,15,05,30.20
2020,08,16,15,06,30.20
2020,08,16,15,07,30.20
2020,08,16,15,08,30.20
2020,08,16,15,09,30.10
2020,08,16,15,10,30.00
2020,08,16,15,11,29.90
2020,08,16,15,12,29.90
2020,08,16,15,13,29.90
2020,08,16,15,14,30.00
2020,08,16,15,15,30.10
2020,08,16,15,16,30.20
2020,08,16,15,17,30.30
2020,08,16,15,18,30.30
2020,08,16,15,19,30.40
2020,08,16,15,20,30.60
2020,08,16,15,21,30.80
2020,08,16,15,22,30.80
2020,08,16,15,23,30.90
2020,08,16,15,24,31.00
2020,08,16,15,25,31.10
2020,08,16,15,26,31.10
2020,08,16,15,27,31.10
2020,08,16,15,28,31.10
2020,08,16,15,29,31.10
2020,08,16,15,30,30.90
2020,08,16,15,31,30.90
2020,08,16,15,32,30.80
2020,08,16,15,33,30.80
2020,08,16,15,34,30.80
2020,08,16,15,35,30.60
2020,08,16,15,36,30.50
2020,08,16,15,37,30.40
2020,08,16,15,38,30.60
2020,08,16,15,39,30.60
2020,08,16,15,40,30.60
2020,08,16,15,41,30.60
2020,08,16,15,42,30.60
2020,08,16,15,43,30.70
2020,08,16,15,44,30.70
2020,08,16,15,45,30.60
2020,08,16,15,46,30.60
2020,08,16,15,47,30.70
2020,08,16,15,48,30.60
2020,08,16,15,49,30.60
2020,08,16,15,50,30.60
2020,08,16,15,51,30.60
2020,08,16,15,52,30.60
2020,08,16,15,53,30.60
2020,08,16,15,54,30.50
2020,08,16,15,55,30.40
2020,08,16,15,56,30.60
2020,08,16,15,57,30.60
2020,08,16,15,58,30.60
2020,08,16,15,59,30.70
2020,08,16,16,00,30.80
2020,08,16,16,01,30.80
2020,08,16,16,02,30.90
2020,08,16,16,03,31.00
2020,08,16,16,04,30.90
2020,08,16,16,05,30.90
2020,08,16,16,06,30.80
2020,08,16,16,07,30.80
2020,08,16,16,08,30.80
2020,08,16,16,09,30.80
2020,08,16,16,10,30.80
2020,08,16,16,11,30.80
2020,08,16,16,12,30.80
2020,08,16,16,13,30.70
2020,08,16,16,14,30.70
2020,08,16,16,15,30.60
2020,08,16,16,16,30.50
2020,08,16,16,17,30.40
2020,08,16,16,18,30.30
2020,08,16,16,19,30.10
2020,08,16,16,20,30.10
2020,08,16,16,21,30.00
2020,08,16,16,22,29.90
2020,08,16,16,23,29.90
2020,08,16,16,24,29.90
2020,08,16,16,25,29.80
2020,08,16,16,26,29.70
2020,08,16,16,27,29.70
2020,08,16,16,28,29.70
2020,08,16,16,29,29.60
2020,08,16,16,30,29.60
2020,08,16,16,31,29.60
2020,08,16,16,32,29.70
2020,08,16,16,33,29.70
2020,08,16,16,34,29.70
2020,08,16,16,35,29.60
2020,08,16,16,36,29.60
2020,08,16,16,37,29.50
2020,08,16,16,38,29.40
2020,08,16,16,39,29.20
2020,08,16,16,40,29.10
2020,08,16,16,41,29.00
2020,08,16,16,42,28.90
2020,08,16,16,43,28.90
2020,08,16,16,44,28.80
2020,08,16,16,45,28.80
2020,08,16,16,46,28.80
2020,08,16,16,47,28.70
2020,08,16,16,48,28.60
2020,08,16,16,49,28.60
2020,08,16,16,50,28.60
2020,08,16,16,51,28.60
2020,08,16,16,52,28.50
2020,08,16,16,53,28.40
2020,08,16,16,54,28.40
2020,08,16,16,55,28.30
2020,08,16,16,56,28.40
2020,08,16,16,57,28.40
2020,08,16,16,58,28.50
2020,08,16,16,59,28.60
2020,08,16,17,00,28.70
2020,08,16,17,01,28.70
2020,08,16,17,02,28.70
2020,08,16,17,03,28.70
2020,08,16,17,04,28.70
2020,08,16,17,05,28.70
2020,08,16,17,06,28.70
2020,08,16,17,07,28.60
2020,08,16,17,08,28.60
2020,08,16,17,09,28.60
2020,08,16,17,10,28.60
2020,08,16,17,11,28.50
2020,08,16,17,12,28.40
2020,08,16,17,13,28.40
2020,08,16,17,14,28.40
2020,08,16,17,15,28.40
2020,08,16,17,16,28.30
2020,08,16,17,17,28.20
2020,08,16,17,18,28.10
2020,08,16,17,19,28.10